Location: Brad
(46.1333°N, 22.7833°E)
Time: 11:28:01
(UTC+00:00)

IRIDIUM 106 - Pass Details

Date: 03 February 2023
Orbit: 776 x 779 km, 86.4° (Epoch: 30 March)

Event Time Altitude Azimuth Distance (km) Brightness Sun altitude
Rises 17:21:48 0° 356° (N) 3,277 7.6 -18.5°
Reaches altitude 10° 17:24:09 10° 356° (N) 2,344 6.8 -18.9°
Maximum altitude 17:29:25 88° 271° (W) 787 4.3 -19.8°
Drops below altitude 10° 17:34:38 10° 179° (S) 2,325 6.8 -20.7°
Sets 17:36:58 0° 179° (S) 3,248 7.6 -21.1°
